GW3580 Weather Reports


time (UTC)temp
C
wind
direction
speed
KPH
gust
KPH
rain 1hr
cm
rain 24hr
cm
rain mn
cm
humidity
%
barometer
mb
20260510221306 33 257 6.4 9.7 0.00 0.00 0.00 27 1010.4
20260510220803 33 262 4.8 6.4 0.00 0.00 0.00 26 1010.4
20260510220259 32 257 4.8 6.4 0.00 0.00 0.00 26 1010.6
20260510215755 32 260 3.2 3.2 0.00 0.00 0.00 27 1010.5
20260510215253 32 231 6.4 8.0 0.00 0.00 0.00 27 1010.4
20260510214750 32 65 1.6 1.6 0.00 0.00 0.00 26 1010.8
20260510214247 32 255 3.2 3.2 0.00 0.00 0.00 28 1010.6
20260510213744 32 255 1.6 3.2 0.00 0.00 0.00 27 1010.9
20260510213241 32 259 1.6 1.6 0.00 0.00 0.00 27 1011.2
20260510212737 32 251 4.8 6.4 0.00 0.00 0.00 28 1010.8
20260510212234 32 267 4.8 6.4 0.00 0.00 0.00 30 1011.0
20260510211731 32 267 4.8 6.4 0.00 0.00 0.00 29 1011.0
20260510211226 32 235 4.8 6.4 0.00 0.00 0.00 30 1011.3
20260510210723 32 194 3.2 3.2 0.00 0.00 0.00 30 1011.2
20260510210217 32 246 3.2 3.2 0.00 0.00 0.00 29 1011.3
20260510205712 31 276 4.8 8.0 0.00 0.00 0.00 30 1011.1
20260510205207 31 31 4.8 6.4 0.00 0.00 0.00 30 1011.4
20260510204703 31 246 6.4 8.0 0.00 0.00 0.00 32 1011.4
20260510204200 31 273 3.2 3.2 0.00 0.00 0.00 32 1011.6
20260510203657 31 240 1.6 1.6 0.00 0.00 0.00 33 1011.4
20260510203155 30 300 8.0 9.7 0.00 0.00 0.00 33 1011.6
20260510202654 30 281 4.8 6.4 0.00 0.00 0.00 36 1011.5
20260510202149 31 269 8.0 9.7 0.00 0.00 0.00 35 1011.6
20260510201647 31 81 4.8 8.0 0.00 0.00 0.00 33 1011.6
20260510201144 31 212 3.2 6.4 0.00 0.00 0.00 34 1011.9
20260510200640 30 332 3.2 3.2 0.00 0.00 0.00 35 1011.8
20260510200138 30 258 4.8 6.4 0.00 0.00 0.00 35 1011.7
20260510195635 30 259 1.6 1.6 0.00 0.00 0.00 35 1011.9
20260510195131 30 264 3.2 3.2 0.00 0.00 0.00 35 1012.0
20260510194631 30 257 3.2 3.2 0.00 0.00 0.00 34 1012.0
20260510194127 29 242 3.2 3.2 0.00 0.00 0.00 38 1012.0
20260510193622 29 255 8.0 9.7 0.00 0.00 0.00 38 1012.0
20260510193118 30 273 4.8 8.0 0.00 0.00 0.00 37 1011.9
20260510192614 29 224 3.2 3.2 0.00 0.00 0.00 38 1012.1
20260510192109 28 316 4.8 6.4 0.00 0.00 0.00 40 1012.1
20260510191606 29 259 6.4 8.0 0.00 0.00 0.00 38 1012.2
20260510191103 28 304 1.6 1.6 0.00 0.00 0.00 39 1012.1
20260510190600 28 215 3.2 3.2 0.00 0.00 0.00 40 1012.2
20260510190057 28 273 9.7 12.9 0.00 0.00 0.00 39 1012.2
20260510185554 28 243 6.4 6.4 0.00 0.00 0.00 40 1012.4
20260510185051 28 238 6.4 8.0 0.00 0.00 0.00 41 1012.5
20260510184549 28 265 1.6 1.6 0.00 0.00 0.00 40 1012.4
20260510184044 28 255 4.8 6.4 0.00 0.00 0.00 41 1012.5
20260510183539 27 276 8.0 9.7 0.00 0.00 0.00 41 1012.4
20260510183035 28 251 4.8 6.4 0.00 0.00 0.00 41 1012.6
20260510182532 27 268 6.4 8.0 0.00 0.00 0.00 42 1012.5
20260510182027 27 238 3.2 6.4 0.00 0.00 0.00 43 1012.7
20260510181525 27 232 6.4 8.0 0.00 0.00 0.00 44 1012.7
20260510181021 27 244 4.8 6.4 0.00 0.00 0.00 45 1012.8
20260510180518 26 262 4.8 6.4 0.00 0.00 0.00 47 1012.7
20260510180016 27 251 3.2 3.2 0.00 0.00 0.00 45 1012.6
20260510175510 26 249 3.2 3.2 0.00 0.00 0.00 48 1012.8
20260510175007 26 264 4.8 8.0 0.00 0.00 0.00 46 1012.6
20260510174505 26 296 4.8 6.4 0.00 0.00 0.00 48 1012.6
20260510174002 26 252 3.2 3.2 0.00 0.00 0.00 49 1012.8
20260510173457 25 251 3.2 3.2 0.00 0.00 0.00 49 1012.8
20260510172954 25 320 0.0 0.0 0.00 0.00 0.00 50 1012.7
20260510172449 25 266 3.2 3.2 0.00 0.00 0.00 51 1012.6
20260510171946 25 320 4.8 6.4 0.00 0.00 0.00 50 1012.5
20260510171443 25 272 1.6 1.6 0.00 0.00 0.00 51 1012.9
20260510170939 25 291 0.0 1.6 0.00 0.00 0.00 53 1012.7
20260510170436 25 257 4.8 6.4 0.00 0.00 0.00 53 1012.7
20260510165932 24 257 3.2 3.2 0.00 0.00 0.00 55 1012.7
20260510165428 23 256 1.6 3.2 0.00 0.00 0.00 55 1012.7
20260510164925 23 232 3.2 6.4 0.00 0.00 0.00 53 1012.8
20260510164422 23 275 3.2 3.2 0.00 0.00 0.00 55 1012.6
20260510163917 23 279 0.0 1.6 0.00 0.00 0.00 56 1012.7
20260510163413 22 243 3.2 3.2 0.00 0.00 0.00 57 1012.9
20260510162908 22 254 3.2 3.2 0.00 0.00 0.00 58 1012.7
20260510162406 22 344 1.6 1.6 0.00 0.00 0.00 60 1012.7
20260510161901 22 287 0.0 1.6 0.00 0.00 0.00 60 1012.6
20260510161357 21 353 1.6 1.6 0.00 0.00 0.00 61 1012.7
20260510160853 21 245 1.6 3.2 0.00 0.00 0.00 62 1012.6
20260510160350 21 255 1.6 3.2 0.00 0.00 0.00 63 1012.8
20260510155844 21 276 1.6 1.6 0.00 0.00 0.00 62 1012.7
20260510155342 21 263 3.2 3.2 0.00 0.00 0.00 61 1012.5
20260510154837 20 304 0.0 0.0 0.00 0.00 0.00 66 1012.7
20260510154333 20 283 3.2 3.2 0.00 0.00 0.00 65 1012.6
20260510153828 20 265 1.6 1.6 0.00 0.00 0.00 66 1012.9
20260510153324 20 284 1.6 1.6 0.00 0.00 0.00 65 1012.6
20260510152821 20 53 0.0 0.0 0.00 0.00 0.00 64 1012.6
20260510152318 20 56 3.2 3.2 0.00 0.00 0.00 64 1012.6
20260510151814 20 52 0.0 1.6 0.00 0.00 0.00 65 1012.5
20260510151313 19 57 1.6 1.6 0.00 0.00 0.00 66 1012.6
20260510150808 18 155 0.0 0.0 0.00 0.00 0.00 69 1012.6
20260510150304 18 264 3.2 3.2 0.00 0.00 0.00 69 1012.4
20260510145800 18 312 0.0 0.0 0.00 0.00 0.00 71 1012.3
20260510145257 18 17 0.0 0.0 0.00 0.00 0.00 70 1012.4
20260510144753 17 31 0.0 0.0 0.00 0.00 0.00 70 1012.4
20260510144249 17 29 0.0 0.0 0.00 0.00 0.00 70 1012.5
20260510143744 17 54 1.6 3.2 0.00 0.00 0.00 71 1012.5
20260510143240 17 22 0.0 1.6 0.00 0.00 0.00 71 1012.2
20260510142737 17 78 0.0 0.0 0.00 0.00 0.00 72 1012.2
20260510142234 17 14 0.0 1.6 0.00 0.00 0.00 72 1012.2
20260510141731 17 264 3.2 3.2 0.00 0.00 0.00 73 1012.2
20260510141229 16 266 0.0 0.0 0.00 0.00 0.00 74 1012.3
20260510140725 16 69 0.0 1.6 0.00 0.00 0.00 74 1012.0
20260510140220 16 358 0.0 0.0 0.00 0.00 0.00 76 1011.9
20260510135714 16 328 0.0 1.6 0.00 0.00 0.00 78 1011.8
20260510135211 15 324 0.0 1.6 0.00 0.00 0.00 80 1011.8
20260510134708 15 332 0.0 0.0 0.00 0.00 0.00 81 1011.7
20260510134206 15 7 0.0 0.0 0.00 0.00 0.00 81 1011.5
20260510133701 15 7 0.0 0.0 0.00 0.00 0.00 82 1011.5
20260510133157 15 32 0.0 0.0 0.00 0.00 0.00 82 1011.6
20260510132653 15 32 0.0 0.0 0.00 0.00 0.00 82 1011.5
20260510132150 15 34 0.0 0.0 0.00 0.00 0.00 82 1011.6
20260510131648 15 34 0.0 0.0 0.00 0.00 0.00 82 1011.4
20260510131145 15 34 0.0 0.0 0.00 0.00 0.00 82 1011.2
20260510130641 15 34 0.0 0.0 0.00 0.00 0.00 81 1011.4
20260510130139 15 34 0.0 0.0 0.00 0.00 0.00 81 1011.4
20260510125635 15 34 0.0 0.0 0.00 0.00 0.00 81 1011.3
20260510125131 15 34 0.0 0.0 0.00 0.00 0.00 80 1011.1
20260510124629 15 34 0.0 0.0 0.00 0.00 0.00 80 1011.3
20260510124125 15 34 0.0 0.0 0.00 0.00 0.00 80 1011.3
20260510123621 15 35 0.0 0.0 0.00 0.00 0.00 80 1011.2
20260510123117 15 35 0.0 0.0 0.00 0.00 0.00 79 1011.3
20260510122613 15 34 0.0 0.0 0.00 0.00 0.00 79 1011.4
20260510122109 15 35 0.0 0.0 0.00 0.00 0.00 79 1011.4
20260510121606 15 34 0.0 0.0 0.00 0.00 0.00 78 1011.3
20260510121103 15 35 0.0 0.0 0.00 0.00 0.00 78 1011.2
20260510120601 15 33 0.0 0.0 0.00 0.00 0.00 79 1011.2
20260510120056 15 35 0.0 0.0 0.00 0.00 0.00 79 1011.3
20260510115553 15 32 0.0 0.0 0.00 0.00 0.00 79 1011.2
20260510115050 15 32 0.0 0.0 0.00 0.00 0.00 79 1011.1
20260510114546 15 32 0.0 0.0 0.00 0.00 0.00 79 1011.2
20260510114042 15 37 0.0 0.0 0.00 0.00 0.00 79 1011.1
20260510113537 15 37 0.0 0.0 0.00 0.00 0.00 79 1011.0
20260510113035 15 37 0.0 0.0 0.00 0.00 0.00 79 1011.1
20260510112532 15 37 0.0 0.0 0.00 0.00 0.00 79 1011.1
20260510112028 15 37 0.0 0.0 0.00 0.00 0.00 79 1011.1
20260510111525 16 37 0.0 0.0 0.00 0.00 0.00 79 1010.9
20260510111021 16 37 0.0 0.0 0.00 0.00 0.00 79 1011.1
20260510110517 16 37 0.0 0.0 0.00 0.00 0.00 79 1011.2
20260510110014 16 37 0.0 0.0 0.00 0.00 0.00 78 1010.9
20260510105509 16 37 0.0 0.0 0.00 0.00 0.00 78 1011.1
20260510105004 16 37 0.0 0.0 0.00 0.00 0.00 78 1010.9
20260510104501 16 37 0.0 0.0 0.00 0.00 0.00 78 1011.1
20260510103957 16 43 0.0 0.0 0.00 0.00 0.00 78 1011.0
20260510103454 16 30 0.0 1.6 0.00 0.00 0.00 78 1011.0
20260510102950 16 30 0.0 0.0 0.00 0.00 0.00 78 1010.9
20260510102446 16 30 0.0 0.0 0.00 0.00 0.00 77 1010.9
20260510101943 16 30 0.0 0.0 0.00 0.00 0.00 77 1010.8
20260510101441 17 35 0.0 0.0 0.00 0.00 0.00 77 1010.8
20260510100939 17 343 0.0 0.0 0.00 0.00 0.00 76 1010.9
20260510100435 17 342 0.0 1.6 0.00 0.00 0.00 75 1010.8
20260510095931 17 314 0.0 0.0 0.00 0.00 0.00 74 1011.1
20260510095427 17 291 0.0 1.6 0.00 0.00 0.00 73 1010.8
20260510094926 17 284 1.6 3.2 0.00 0.00 0.00 73 1010.9
20260510094421 17 278 3.2 3.2 0.00 0.00 0.00 74 1010.8
20260510093917 17 259 1.6 1.6 0.00 0.00 0.00 74 1011.0
20260510093413 17 270 0.0 0.0 0.00 0.00 0.00 73 1011.0
20260510092910 17 206 0.0 0.0 0.00 0.00 0.00 73 1010.9
20260510092407 17 351 0.0 0.0 0.00 0.00 0.00 72 1011.0
20260510091907 18 330 0.0 0.0 0.00 0.00 0.00 72 1010.8
20260510091404 18 33 0.0 0.0 0.00 0.00 0.00 71 1011.0
20260510090900 18 35 0.0 0.0 0.00 0.00 0.00 71 1011.0
20260510090357 18 28 0.0 0.0 0.00 0.00 0.00 71 1011.1
20260510085853 18 39 0.0 1.6 0.00 0.00 0.00 71 1011.2
20260510085348 18 192 0.0 0.0 0.00 0.00 0.00 71 1011.0
20260510084844 18 193 0.0 0.0 0.00 0.00 0.00 70 1011.1
20260510084341 18 35 0.0 0.0 0.00 0.00 0.00 70 1011.0
20260510083838 18 0 0.0 0.0 0.00 0.00 0.00 70 1011.1
20260510083334 19 336 0.0 0.0 0.00 0.00 0.00 70 1011.0
20260510082830 19 35 0.0 0.0 0.00 0.00 0.00 69 1011.0
20260510082327 20 82 0.0 0.0 0.00 0.00 0.00 68 1010.8
20260510081826 20 263 0.0 1.6 0.00 0.00 0.00 68 1010.9
20260510081322 20 299 0.0 1.6 0.00 0.00 0.00 67 1010.8
20260510080819 20 217 3.2 3.2 0.00 0.00 0.00 67 1010.9
20260510080313 20 237 1.6 1.6 0.00 0.00 0.00 66 1011.0
20260510075811 20 249 1.6 1.6 0.00 0.00 0.00 66 1010.9
20260510075308 20 264 1.6 1.6 0.00 0.00 0.00 65 1010.9
20260510074805 20 259 3.2 3.2 0.00 0.00 0.00 65 1011.2
20260510074302 20 257 1.6 1.6 0.00 0.00 0.00 64 1010.9
20260510073758 21 259 1.6 3.2 0.00 0.00 0.00 63 1011.1
20260510073254 21 254 3.2 3.2 0.00 0.00 0.00 63 1010.9
20260510072749 21 270 1.6 3.2 0.00 0.00 0.00 63 1011.0
20260510072246 21 232 4.8 6.4 0.00 0.00 0.00 63 1010.9
20260510071743 21 268 3.2 3.2 0.00 0.00 0.00 64 1011.2
20260510071239 21 273 0.0 1.6 0.00 0.00 0.00 63 1011.2
20260510070738 21 236 1.6 1.6 0.00 0.00 0.00 63 1011.1
20260510070235 21 262 1.6 1.6 0.00 0.00 0.00 62 1011.0
20260510065729 21 254 3.2 3.2 0.00 0.00 0.00 62 1010.9
20260510065226 21 257 3.2 3.2 0.00 0.00 0.00 62 1010.9
20260510064723 21 263 1.6 1.6 0.00 0.00 0.00 61 1010.9
20260510064221 21 240 3.2 3.2 0.00 0.00 0.00 61 1010.9
20260510063717 21 266 3.2 3.2 0.00 0.00 0.00 61 1010.9
20260510063213 21 226 1.6 1.6 0.00 0.00 0.00 62 1011.0
20260510062710 21 238 1.6 1.6 0.00 0.00 0.00 61 1010.8
20260510062206 21 237 0.0 0.0 0.00 0.00 0.00 61 1010.6
20260510061701 21 251 1.6 1.6 0.00 0.00 0.00 61 1010.8
20260510061159 21 250 3.2 3.2 0.00 0.00 0.00 60 1010.6
20260510060655 21 254 1.6 1.6 0.00 0.00 0.00 60 1010.9
20260510060152 21 235 1.6 3.2 0.00 0.00 0.00 60 1011.0
20260510055648 22 247 0.0 0.0 0.00 0.00 0.00 59 1011.0
20260510055146 22 240 1.6 3.2 0.00 0.00 0.00 59 1010.9
20260510054641 22 284 0.0 1.6 0.00 0.00 0.00 58 1010.9
20260510054137 22 263 1.6 3.2 0.00 0.00 0.00 58 1010.9
20260510053636 22 258 1.6 1.6 0.00 0.00 0.00 58 1010.8
20260510053133 22 245 1.6 3.2 0.00 0.00 0.00 58 1010.8
20260510052629 22 260 0.0 0.0 0.00 0.00 0.00 58 1011.0
20260510052126 22 265 1.6 1.6 0.00 0.00 0.00 57 1011.0
20260510051621 22 298 0.0 0.0 0.00 0.00 0.00 56 1010.9
20260510051118 22 291 0.0 0.0 0.00 0.00 0.00 56 1010.9
20260510050615 22 313 0.0 0.0 0.00 0.00 0.00 56 1010.8
20260510050113 22 41 0.0 0.0 0.00 0.00 0.00 56 1010.8
20260510045609 22 80 0.0 0.0 0.00 0.00 0.00 56 1010.8
20260510045105 22 80 0.0 0.0 0.00 0.00 0.00 55 1010.8
20260510044602 22 81 0.0 0.0 0.00 0.00 0.00 55 1010.4
20260510044059 22 124 0.0 0.0 0.00 0.00 0.00 54 1010.4
20260510043555 23 124 0.0 0.0 0.00 0.00 0.00 54 1010.4
20260510043051 23 37 0.0 0.0 0.00 0.00 0.00 53 1010.3
20260510042545 23 237 0.0 1.6 0.00 0.00 0.00 53 1010.2
20260510042040 23 243 1.6 1.6 0.00 0.00 0.00 52 1010.3
20260510041537 23 227 1.6 1.6 0.00 0.00 0.00 52 1010.2
20260510041034 23 242 0.0 1.6 0.00 0.00 0.00 52 1010.1
20260510040050 24 250 3.2 3.2 0.00 0.00 0.00 50 1010.2
20260510035546 24 250 3.2 3.2 0.00 0.00 0.00 50 1010.2
20260510035046 24 235 1.6 1.6 0.00 0.00 0.00 50 1010.1
20260510034544 25 246 0.0 0.0 0.00 0.00 0.00 49 1009.8
20260510034041 25 246 0.0 0.0 0.00 0.00 0.00 49 1009.8
20260510033537 25 243 0.0 0.0 0.00 0.00 0.00 48 1009.9
20260510033035 25 247 0.0 1.6 0.00 0.00 0.00 49 1009.9
20260510032531 25 247 3.2 3.2 0.00 0.00 0.00 49 1009.8
20260510032027 25 246 3.2 3.2 0.00 0.00 0.00 49 1009.5
20260510031522 25 277 0.0 1.6 0.00 0.00 0.00 49 1009.8
20260510031018 25 312 0.0 0.0 0.00 0.00 0.00 49 1009.7
20260510030514 26 343 0.0 1.6 0.00 0.00 0.00 49 1009.5
20260510030011 26 345 0.0 0.0 0.00 0.00 0.00 47 1009.5
20260510025508 26 345 0.0 0.0 0.00 0.00 0.00 47 1009.4
20260510025006 27 345 0.0 0.0 0.00 0.00 0.00 47 1009.5
20260510024503 27 356 0.0 0.0 0.00 0.00 0.00 46 1009.4
20260510023958 27 1 0.0 0.0 0.00 0.00 0.00 45 1009.6
20260510023454 28 355 0.0 0.0 0.00 0.00 0.00 44 1009.4
20260510022952 28 333 0.0 0.0 0.00 0.00 0.00 42 1009.4
20260510022451 28 259 0.0 0.0 0.00 0.00 0.00 40 1009.3
20260510021950 29 254 1.6 1.6 0.00 0.00 0.00 39 1009.4
20260510021448 29 255 1.6 1.6 0.00 0.00 0.00 39 1009.2
20260510020944 30 285 4.8 6.4 0.00 0.00 0.00 37 1009.1
20260510020439 30 293 4.8 8.0 0.00 0.00 0.00 37 1009.2
20260510015935 30 267 3.2 3.2 0.00 0.00 0.00 35 1009.2
20260510015431 30 231 4.8 6.4 0.00 0.00 0.00 35 1009.2
20260510014926 30 258 8.0 8.0 0.00 0.00 0.00 34 1009.4
20260510014424 30 269 6.4 8.0 0.00 0.00 0.00 34 1009.2
20260510013920 30 256 6.4 8.0 0.00 0.00 0.00 33 1009.3
20260510013415 31 252 1.6 3.2 0.00 0.00 0.00 33 1009.3
20260510012910 31 264 3.2 3.2 0.00 0.00 0.00 32 1009.1
20260510012406 31 264 8.0 9.7 0.00 0.00 0.00 31 1009.3
20260510011900 31 249 4.8 6.4 0.00 0.00 0.00 32 1009.3
20260510011356 31 242 3.2 3.2 0.00 0.00 0.00 29 1009.4
20260510010852 31 271 0.0 1.6 0.00 0.00 0.00 31 1009.5
20260510010350 31 267 4.8 6.4 0.00 0.00 0.00 32 1009.4
20260510005846 31 257 3.2 3.2 0.00 0.00 0.00 34 1009.3
20260510005343 31 249 8.0 11.3 0.00 0.00 0.00 33 1009.1
20260510004840 31 290 8.0 9.7 0.00 0.00 0.00 32 1009.6
20260510004337 31 277 1.6 1.6 0.00 0.00 0.00 35 1009.5
20260510003835 31 243 4.8 6.4 0.00 0.00 0.00 35 1009.4
20260510003332 31 16 1.6 1.6 0.00 0.00 0.00 33 1009.4
20260510002830 31 286 1.6 1.6 0.00 0.00 0.00 35 1009.7
20260510002328 31 262 8.0 9.7 0.00 0.00 0.00 34 1009.5
20260510001825 31 29 4.8 6.4 0.00 0.00 0.00 32 1009.6
20260510001323 31 249 3.2 3.2 0.00 0.00 0.00 33 1009.7
20260510000818 31 237 4.8 6.4 0.00 0.00 0.00 32 1009.5
20260510000318 31 242 3.2 3.2 0.00 0.00 0.00 32 1009.5
20260509235813 31 281 1.6 3.2 0.00 0.00 0.00 32 1009.6
20260509235309 31 261 8.0 8.0 0.00 0.00 0.00 30 1009.9
20260509234805 31 255 3.2 6.4 0.00 0.00 0.00 30 1009.8
20260509234302 31 349 0.0 1.6 0.00 0.00 0.00 31 1009.5
20260509233800 31 237 6.4 9.7 0.00 0.00 0.00 32 1009.7
20260509233258 31 281 3.2 3.2 0.00 0.00 0.00 34 1009.9
20260509232753 31 209 3.2 3.2 0.00 0.00 0.00 32 1009.8
20260509232251 32 275 6.4 8.0 0.00 0.00 0.00 31 1009.9
20260509231747 31 227 1.6 1.6 0.00 0.00 0.00 32 1009.9
20260509231244 31 254 1.6 1.6 0.00 0.00 0.00 32 1010.0
20260509230742 31 235 6.4 8.0 0.00 0.00 0.00 33 1010.0
20260509230239 31 248 6.4 8.0 0.00 0.00 0.00 33 1010.0
20260509225734 31 260 6.4 8.0 0.00 0.00 0.00 29 1010.2
20260509225230 31 290 3.2 3.2 0.00 0.00 0.00 29 1010.2
20260509224726 31 261 4.8 6.4 0.00 0.00 0.00 30 1010.2
20260509224223 31 247 3.2 3.2 0.00 0.00 0.00 32 1010.2
20260509223720 30 314 4.8 6.4 0.00 0.00 0.00 33 1010.4
20260509223217 31 271 4.8 6.4 0.00 0.00 0.00 33 1010.6
20260509222714 30 263 3.2 3.2 0.00 0.00 0.00 34 1010.6
20260509222209 30 255 3.2 3.2 0.00 0.00 0.00 34 1010.8
20260509221705 31 237 4.8 8.0 0.00 0.00 0.00 36 1010.8